SNAP-3 EDDIE

Last updated on Thu Sep 17 2026 00:03:43 GMT+0000 (Coordinated Universal Time)

1 40972U 15058J 26259.18190067 .06070636 74910-5 18212-2 0 9997 2 40972 64.7252 131.5316 0015711 261.6223 98.3174 16.26251650133381

Satellite not in orbit

SNAP-3 EDDIE